DW5978 Whyalla SA AU current weather conditions

sailwx.info

Last reported at 2017-Mar-23 19:54 UTC.
Time now 2017-Mar-23 20:24 UTC

Location: S 33°01' E 137°32'.
View on Google Maps.

See reports from other nearby stations

  
Tides and Currents Weather Stations Pressure Air Temp Water Temp Dewpoint Dewpoint Depression Visibility Wind Speed Wind Dir Waves Ship Positions
date/time (UTC)wind fromknots sea level pressurealtimeterstation pressurevisibilityair tempwater tempwave heightnotes
2017-Mar-23 19:54
2017-Mar-23 19:39
2017-Mar-23 19:24
2017-Mar-23 19:08
2017-Mar-23 18:53 304 17.2
2017-Mar-23 18:38 305 17.8
2017-Mar-23 18:23 304 17.2
2017-Mar-23 18:08 305 0 gusting 1 17.2
2017-Mar-23 17:53 304 17.2
2017-Mar-23 17:23 305 17.8
2017-Mar-23 17:08 304 17.8
2017-Mar-23 16:53 304 17.8
2017-Mar-23 16:38 304 17.8
2017-Mar-23 16:23 304 17.8
2017-Mar-23 16:08 304 0 gusting 0 18.3
2017-Mar-23 15:53 304 18.9
2017-Mar-23 15:38 204 19.4
2017-Mar-23 15:23 204 20.0
2017-Mar-23 15:08 170 20.6
2017-Mar-23 14:53 169 20.6
2017-Mar-23 14:38 249 20.6
2017-Mar-23 14:23 221 21.1
2017-Mar-23 14:08 201 2 gusting 4 21.1
2017-Mar-23 13:37 221 21.1
2017-Mar-23 13:22 231 0 gusting 3 21.1
2017-Mar-23 13:07 232 0 gusting 2 21.1
2017-Mar-23 12:52 212 0 gusting 3 21.7
2017-Mar-23 12:38 204 0 gusting 3 21.7
2017-Mar-23 12:22 210 1 gusting 5 21.7
2017-Mar-23 12:07 190 0 gusting 4 21.7
2017-Mar-23 11:52 177 1 gusting 5 21.7
2017-Mar-23 11:37 185 2 gusting 5 22.2
2017-Mar-23 11:22 187 3 gusting 6 22.2
2017-Mar-23 11:07 222 3 gusting 7 22.2
2017-Mar-23 10:52 195 2 gusting 6 22.8
2017-Mar-23 10:37 207 3 gusting 7 22.8
2017-Mar-23 10:22 207 4 gusting 9 22.8
2017-Mar-23 10:07 193 3 gusting 11 23.3
2017-Mar-23 09:52 183 6 gusting 11 23.3
2017-Mar-23 09:38 159 3 gusting 10 23.9
2017-Mar-23 09:22 140 3 gusting 8 23.9
2017-Mar-23 09:07 188 2 gusting 10 24.4
2017-Mar-23 08:52 165 5 gusting 9 25.0
2017-Mar-23 08:37 146 5 gusting 9 25.6
2017-Mar-23 08:22 193 4 gusting 10 26.1
2017-Mar-23 08:07 210 4 gusting 8 27.2
2017-Mar-23 07:52 212 6 gusting 11 27.2
2017-Mar-23 07:37 198 6 gusting 10 27.8
2017-Mar-23 07:22 170 5 gusting 9 27.8
2017-Mar-23 07:07 181 4 gusting 11 27.8
2017-Mar-23 06:52 193 3 gusting 8 27.2
2017-Mar-23 06:37 153 3 gusting 7 27.8
2017-Mar-23 06:22 207 5 gusting 10 27.8
2017-Mar-23 06:07 205 6 gusting 9 27.2
2017-Mar-23 05:52 160 5 gusting 9 27.8
2017-Mar-23 05:37 174 6 gusting 12 27.2
2017-Mar-23 05:22 140 5 gusting 8 27.2
2017-Mar-23 05:07 198 4 gusting 9 26.7
2017-Mar-23 04:52 210 6 gusting 10 26.7
2017-Mar-23 04:37 128 5 gusting 9 26.1
2017-Mar-23 04:22 184 6 gusting 11 26.1
2017-Mar-23 04:07 187 5 gusting 10 25.6
2017-Mar-23 03:52 215 4 gusting 11 25.0
2017-Mar-23 03:37 190 6 gusting 12 25.0
2017-Mar-23 03:22 136 5 gusting 12 25.0
2017-Mar-23 03:07 113 4 gusting 11 25.0
2017-Mar-23 02:51 186 7 gusting 11 24.4
2017-Mar-23 02:37 114 4 gusting 11 24.4
2017-Mar-23 02:06 190 5 gusting 10 23.9
2017-Mar-23 01:51 150 3 gusting 8 23.9
2017-Mar-23 01:36 150 3 gusting 9 23.9
2017-Mar-23 01:06 162 4 gusting 9 23.3
2017-Mar-23 00:51 197 3 gusting 7 22.8
2017-Mar-23 00:36 131 3 gusting 6 22.8
2017-Mar-23 00:21 134 2 gusting 6 22.8
2017-Mar-23 00:06 124 2 gusting 7 22.2
2017-Mar-22 23:51 148 2 gusting 6 22.2
2017-Mar-22 23:36 094 1 gusting 5 21.7
2017-Mar-22 23:21 119 1 gusting 5 21.7
2017-Mar-22 23:06 184 2 gusting 5 21.1
2017-Mar-22 22:51 129 1 gusting 4 20.6
2017-Mar-22 22:36 122 2 gusting 5 20.0
2017-Mar-22 22:21 112 2 gusting 6 20.0
2017-Mar-22 22:06 159 2 gusting 5 19.4
2017-Mar-22 21:51 129 1 gusting 6 19.4
2017-Mar-22 21:36
2017-Mar-22 21:21
2017-Mar-22 21:06
2017-Mar-22 20:36
2017-Mar-22 20:21
2017-Mar-22 20:06
2017-Mar-22 19:50
2017-Mar-22 19:36
2017-Mar-22 19:21
2017-Mar-22 19:05
2017-Mar-22 18:50
2017-Mar-22 18:35
2017-Mar-22 18:20 151 5 gusting 9 19.4
2017-Mar-22 18:05 150 5 gusting 9 19.4
2017-Mar-22 17:50 145 4 gusting 8 19.4
2017-Mar-22 17:35 183 4 gusting 9 19.4
2017-Mar-22 17:20 148 4 gusting 10 20.0
2017-Mar-22 17:05 171 4 gusting 9 20.0
2017-Mar-22 16:50 145 3 gusting 13 20.0
2017-Mar-22 16:35 162 5 gusting 11 20.0
2017-Mar-22 16:20 162 5 gusting 10 20.0
2017-Mar-22 16:05 150 5 gusting 11 20.6
2017-Mar-22 15:50 166 3 gusting 12 20.6
2017-Mar-22 15:35 153 6 gusting 13 20.6
2017-Mar-22 15:20 165 6 gusting 11 20.6
2017-Mar-22 15:04 131 6 gusting 11 21.1
2017-Mar-22 14:49 114 4 gusting 11 21.1
2017-Mar-22 14:34 143 4 gusting 10 21.1
2017-Mar-22 14:19 133 5 gusting 13 21.1
2017-Mar-22 14:04 129 5 gusting 11 21.1
2017-Mar-22 13:49 193 4 gusting 11 21.1
2017-Mar-22 13:34 142 5 gusting 12 21.1
2017-Mar-22 13:19 148 3 gusting 11 21.1
2017-Mar-22 13:04 165 5 gusting 10 21.1
2017-Mar-22 12:49 165 4 gusting 9 21.1
2017-Mar-22 12:34 136 4 gusting 8 21.1
2017-Mar-22 12:19 193 4 gusting 11 21.1
2017-Mar-22 11:49 204 5 gusting 11 21.1
2017-Mar-22 11:34 210 5 gusting 14 21.1
2017-Mar-22 11:19 165 4 gusting 13 21.7
2017-Mar-22 11:04 181 7 gusting 13 21.7
2017-Mar-22 10:49 167 6 gusting 14 21.7
2017-Mar-22 10:34 160 9 gusting 15 22.2
2017-Mar-22 10:19 176 6 gusting 13 22.2
2017-Mar-22 10:04 153 4 gusting 13 22.8
2017-Mar-22 09:49 179 6 gusting 13 22.8
2017-Mar-22 09:34 150 6 gusting 14 22.8
2017-Mar-22 09:19 188 6 gusting 13 23.3
2017-Mar-22 09:04 150 6 gusting 13 23.3
2017-Mar-22 08:49 173 7 gusting 17 23.3
2017-Mar-22 08:34 195 10 gusting 15 23.9
2017-Mar-22 08:19 204 6 gusting 15 24.4
2017-Mar-22 08:04 193 7 gusting 20 24.4
2017-Mar-22 07:49 198 8 gusting 17 24.4
2017-Mar-22 07:34 212 11 gusting 19 25.0
2017-Mar-22 07:19 177 10 gusting 17 25.0
2017-Mar-22 07:04 184 11 gusting 17 25.0
2017-Mar-22 06:49 193 9 gusting 18 25.0
2017-Mar-22 06:34 204 10 gusting 19 25.0
2017-Mar-22 06:19 184 10 gusting 18 25.0
2017-Mar-22 06:04 150 10 gusting 17 25.0
2017-Mar-22 05:49 159 10 gusting 17 25.0
2017-Mar-22 05:34 140 7 gusting 19 25.0
2017-Mar-22 05:19 122 7 gusting 19 25.0
2017-Mar-22 05:04 220 10 gusting 17 25.0
2017-Mar-22 04:49 210 7 gusting 13 25.0
2017-Mar-22 04:34 193 8 gusting 17 24.4
2017-Mar-22 04:19 162 8 gusting 15 24.4
2017-Mar-22 04:04 181 6 gusting 15 24.4
2017-Mar-22 03:49 191 9 gusting 17 23.9
2017-Mar-22 03:34 193 7 gusting 15 23.9
2017-Mar-22 03:18 190 8 gusting 14 23.9
2017-Mar-22 03:03 215 7 gusting 13 23.3
2017-Mar-22 02:48 187 6 gusting 12 22.8
2017-Mar-22 02:33 159 5 gusting 11 22.2
2017-Mar-22 02:18 173 6 gusting 11 22.2
2017-Mar-22 02:03 185 6 gusting 11 21.7
2017-Mar-22 01:48 117 4 gusting 9 21.7
2017-Mar-22 01:33 154 5 gusting 11 22.2
2017-Mar-22 01:18 162 5 gusting 11 22.2
2017-Mar-22 01:03 163 6 gusting 12 22.2
2017-Mar-22 00:48 170 6 gusting 10 22.2
2017-Mar-22 00:33 204 4 gusting 11 22.2
2017-Mar-22 00:18 159 6 gusting 13 21.7
2017-Mar-22 00:03 159 4 gusting 14 21.7
2017-Mar-21 23:48 150 4 gusting 12 21.7
2017-Mar-21 23:33 117 6 gusting 13 22.2
2017-Mar-21 23:18 122 5 gusting 12 22.2
2017-Mar-21 23:03 174 6 gusting 13 21.7
2017-Mar-21 22:48 195 6 gusting 10 21.7
2017-Mar-21 22:33 154 5 gusting 12 21.7
2017-Mar-21 22:18 179 4 gusting 9 21.7
2017-Mar-21 22:03
2017-Mar-21 21:49
2017-Mar-21 21:33
2017-Mar-21 21:18
2017-Mar-21 21:03
2017-Mar-21 20:48
2017-Mar-21 20:32
2017-Mar-21 20:17
2017-Mar-21 20:02